• Processing (Info)

  • MPEC 2010-J71 : 2010 JM41

    The following Minor Planet Electronic Circular may be linked-to from your own Web pages, but must not otherwise be redistributed electronically.

    A form allowing access to any MPEC is at the bottom of this page.


    Read MPEC 2010-J70 Read MPEC 2010-J72


    M.P.E.C. 2010-J71                                Issued 2010 May 11, 16:15 UT
    
         The Minor Planet Electronic Circulars contain information on unusual
             minor planets and routine data on comets.  They are published
       on behalf of Commission 20 of the International Astronomical Union by the
              Minor Planet Center, Smithsonian Astrophysical Observatory,
                              Cambridge, MA 02138, U.S.A.
    
                 Prepared using the Tamkin Foundation Computer Network
    
                                  MPC@CFA.HARVARD.EDU
           URL https://www.minorplanetcenter.org/iau/mpc.html  ISSN 1523-6714
    
                                       2010 JM41
    
    Observations:
         K10J41M* C2010 05 10.44465 17 30 43.63 +25 20 31.4          20.7 V EJ071G96
         K10J41M  C2010 05 10.44895 17 30 43.81 +25 20 52.1          20.9 V EJ071G96
         K10J41M  C2010 05 10.45326 17 30 43.88 +25 21 13.3          20.8 V EJ071G96
         K10J41M  C2010 05 10.46586 17 30 44.28 +25 22 14.3          20.6 V EJ071G96
         K10J41M  C2010 05 10.46646 17 30 44.28 +25 22 17.4          20.7 V EJ071G96
         K10J41M  C2010 05 10.46706 17 30 44.28 +25 22 20.6          20.9 V EJ071G96
         K10J41M  C2010 05 10.46765 17 30 44.31 +25 22 23.4          20.8 V EJ071G96
         K10J41M tC2010 05 11.33487 17 31 17.20 +26 33 38.5          21.0 V EJ071291
         K10J41M tC2010 05 11.33896 17 31 17.32 +26 33 58.5          20.9 V EJ071291
         K10J41M tC2010 05 11.34332 17 31 17.45 +26 34 20.2                 EJ071291
         K10J41M tC2010 05 11.36168 17 31 17.94 +26 35 51.5          21.2 V EJ071291
         K10J41M tC2010 05 11.37016 17 31 18.12 +26 36 33.3                 EJ071291
         K10J41M  C2010 05 11.37957 17 31 18.39 +26 37 20.4          20.6 R EJ071926
         K10J41M  C2010 05 11.38438 17 31 18.43 +26 37 44.3          20.2 R EJ071926
    
    Observer details:
    291 LPL/Spacewatch II.  Observer R. S. McMillan.  1.8-m f/2.7 reflector + CCD.
    926 Tenagra II Observatory.  Observers P. R. Holvorcem, M. Schwartz.  Measurer
        P. R. Holvorcem.  0.81-m f/7 Ritchey-Chretien + CCD.
    G96 Mt. Lemmon Survey.  Observer R. A. Kowalski.  Measurers J. D. Ahern,
        E. C. Beshore, A. Boattini, G. J. Garradd, A. R. Gibbs, A. D. Grauer,
        R. E. Hill, R. A. Kowalski, S. M. Larson, R. H. McNaught.  1.5-m reflector
        + CCD.
    
    Orbital elements:
    2010 JM41                                                Earth MOID = 0.1565 AU
    Epoch 2010 July 23.0 TT = JDT 2455400.5                 MPC
    M 337.65885              (2000.0)            P               Q
    n   0.75128491     Peri.  150.82571     +0.97891011     +0.15412643
    a   1.1983939      Node   201.58728     -0.16320242     +0.98479730
    e   0.3321155      Incl.   21.37405     +0.12288190     +0.08012065
    P   1.31           H   21.0           G   0.15           U   9
    Residuals in seconds of arc
    100510 G96  0.4-  0.5+    100510 G96  0.1-  0.0     100511 291  0.3+  0.1+
    100510 G96  0.4+  0.1+    100510 G96  0.1+  0.1-    100511 291  0.2-  0.2-
    100510 G96  0.3-  0.2+    100511 291  0.2-  0.2+    100511 926  0.4+  0.0
    100510 G96  0.3+  0.4-    100511 291  0.0   0.1-    100511 926  0.7-  0.1+
    100510 G96  0.1+  0.3-    100511 291  0.2+  0.1-
    
    Ephemeris:
    2010 JM41                a,e,i = 1.20, 0.33, 21                  q = 0.8004
    Date    TT    R. A. (2000) Decl.     Delta      r     Elong.  Phase     V
    2010 05 04    17 26.11   +16 51.0    0.375    1.275   128.3    38.4    20.9
    2010 05 14    17 32.75   +30 14.9    0.341    1.226   122.0    44.4    20.8
    2010 05 24    17 36.50   +44 06.0    0.327    1.173   111.7    53.3    20.9
    2010 06 03    17 37.79   +56 53.1    0.329    1.119   100.0    63.2    21.1
    2010 06 13    17 36.97   +67 58.2    0.340    1.064    88.8    72.6    21.3
    2010 06 23    17 34.15   +77 38.7    0.354    1.009    78.8    81.1    21.6
    2010 07 03    17 15.47   +86 42.0    0.367    0.956    70.0    88.8    21.9
    
    Sonia Keys                   (C) Copyright 2010 MPC           M.P.E.C. 2010-J71
    

    Read MPEC 2010-J70 Read MPEC 2010-J72


    MPEC number:

    Enter an MPEC number in one of the following forms:

    • 1997-B01 (the full form)
    • J97B01 (the packed version of the full form)
    • B01 (the abbreviated form)